| time (UTC) | temp C | wind direction | speed KPH | gust KPH | rain 1hr cm | rain 24hr cm | rain mn cm | humidity % | barometer mb |
| 20260508072154 | 10 | 320 | 1.6 | 0.0 | 0.00 | 0.00 | 0.00 | 80 | 1017.2 |
| 20260508065521 | 10 | 330 | 1.6 | 0.0 | 0.00 | 0.00 | 0.00 | 83 | 1017.0 |
| 20260508062731 | 10 | 330 | 1.6 | 0.0 | 0.00 | 0.00 | 0.00 | 83 | 1017.0 |
| 20260508060146 | 10 | 340 | 1.6 | 0.0 | 0.00 | 0.00 | 0.00 | 85 | 1016.5 |
| 20260508053426 | 10 | 340 | 1.6 | 0.0 | 0.00 | 0.00 | 0.00 | 85 | 1016.5 |
| 20260508044026 | 10 | 340 | 1.6 | 0.0 | 0.00 | 0.00 | 0.00 | 81 | 1016.3 |
| 20260508041421 | 10 | 350 | 1.6 | 0.0 | 0.00 | 0.00 | 0.00 | 81 | 1016.1 |
| 20260508034628 | 10 | 350 | 1.6 | 0.0 | 0.00 | 0.00 | 0.00 | 81 | 1016.1 |
| 20260508032039 | 10 | 350 | 1.6 | 0.0 | 0.00 | 0.00 | 0.00 | 81 | 1016.1 |
| 20260508022706 | 10 | 350 | 3.2 | 0.0 | 0.00 | 0.00 | 0.00 | 79 | 1016.0 |
| 20260508015828 | 10 | 20 | 1.6 | 0.0 | 0.00 | 0.00 | 0.00 | 76 | 1015.9 |
| 20260508013053 | 10 | 20 | 1.6 | 0.0 | 0.00 | 0.00 | 0.00 | 76 | 1015.9 |
| 20260508010306 | 10 | 360 | 3.2 | 0.0 | 0.00 | 0.00 | 0.00 | 76 | 1015.7 |
| 20260508003601 | 10 | 360 | 3.2 | 0.0 | 0.00 | 0.00 | 0.00 | 76 | 1015.7 |
| 20260508000806 | 11 | 30 | 3.2 | 0.0 | 0.00 | 0.00 | 0.00 | 74 | 1015.7 |
| 20260507234028 | 11 | 30 | 3.2 | 0.0 | 0.00 | 0.00 | 0.00 | 74 | 1015.7 |
| 20260507231516 | 11 | 30 | 3.2 | 0.0 | 0.00 | 0.00 | 0.00 | 74 | 1015.7 |
| 20260507224840 | 11 | 360 | 1.6 | 0.0 | 0.00 | 0.00 | 0.00 | 74 | 1015.0 |
| 20260507222126 | 11 | 360 | 1.6 | 0.0 | 0.00 | 0.00 | 0.00 | 74 | 1015.0 |
| 20260507215256 | 12 | 350 | 1.6 | 0.0 | 0.00 | 0.00 | 0.00 | 74 | 1014.8 |
| 20260507212728 | 12 | 350 | 1.6 | 0.0 | 0.00 | 0.00 | 0.00 | 74 | 1014.8 |
| 20260507210145 | 12 | 360 | 1.6 | 0.0 | 0.00 | 0.00 | 0.00 | 73 | 1014.8 |
| 20260507203251 | 12 | 360 | 1.6 | 0.0 | 0.00 | 0.00 | 0.00 | 73 | 1014.8 |
| 20260507200559 | 12 | 330 | 1.6 | 0.0 | 0.00 | 0.00 | 0.00 | 74 | 1014.5 |
| 20260507193941 | 12 | 330 | 1.6 | 0.0 | 0.00 | 0.00 | 0.00 | 74 | 1014.5 |
| 20260507191149 | 13 | 320 | 1.6 | 0.0 | 0.00 | 0.00 | 0.00 | 73 | 1013.8 |
| 20260507184440 | 13 | 320 | 1.6 | 0.0 | 0.00 | 0.00 | 0.00 | 73 | 1013.8 |
| 20260507181705 | 13 | 320 | 1.6 | 0.0 | 0.00 | 0.00 | 0.00 | 73 | 1013.8 |
| 20260507174945 | 13 | 320 | 3.2 | 0.0 | 0.00 | 0.00 | 0.00 | 72 | 1012.7 |
| 20260507165536 | 13 | 310 | 1.6 | 0.0 | 0.00 | 0.00 | 0.00 | 70 | 1012.8 |
| 20260507162831 | 13 | 310 | 1.6 | 0.0 | 0.00 | 0.00 | 0.00 | 70 | 1012.8 |
| 20260507160106 | 14 | 300 | 3.2 | 0.0 | 0.00 | 0.00 | 0.00 | 68 | 1012.8 |
| 20260507153416 | 14 | 300 | 3.2 | 0.0 | 0.00 | 0.00 | 0.00 | 68 | 1012.8 |
| 20260507150901 | 15 | 310 | 4.8 | 0.0 | 0.00 | 0.00 | 0.00 | 67 | 1012.2 |
| 20260507144206 | 15 | 310 | 4.8 | 0.0 | 0.00 | 0.00 | 0.00 | 67 | 1012.2 |
| 20260507141446 | 15 | 310 | 4.8 | 0.0 | 0.00 | 0.00 | 0.00 | 67 | 1012.2 |
| 20260507134646 | 15 | 290 | 3.2 | 0.0 | 0.00 | 0.00 | 0.00 | 72 | 1012.1 |
| 20260507125355 | 15 | 300 | 4.8 | 0.0 | 0.00 | 0.00 | 0.00 | 68 | 1011.9 |
| 20260507122607 | 15 | 300 | 4.8 | 0.0 | 0.00 | 0.00 | 0.00 | 68 | 1011.9 |
| 20260507120126 | 13 | 290 | 1.6 | 0.0 | 0.00 | 0.00 | 0.00 | 82 | 1011.7 |
| 20260507113546 | 13 | 290 | 1.6 | 0.0 | 0.00 | 0.00 | 0.00 | 82 | 1011.7 |
| 20260507111021 | 13 | 290 | 3.2 | 0.0 | 0.00 | 0.00 | 0.00 | 79 | 1011.1 |
| 20260507104315 | 13 | 290 | 3.2 | 0.0 | 0.00 | 0.00 | 0.00 | 79 | 1011.1 |
| 20260507101520 | 13 | 290 | 3.2 | 0.0 | 0.00 | 0.00 | 0.00 | 79 | 1011.1 |
| 20260507094613 | 15 | 300 | 4.8 | 0.0 | 0.00 | 0.00 | 0.00 | 75 | 1010.1 |
| 20260507085348 | 16 | 300 | 4.8 | 0.0 | 0.00 | 0.00 | 0.00 | 74 | 1009.5 |
| 20260507082859 | 16 | 300 | 4.8 | 0.0 | 0.00 | 0.00 | 0.00 | 74 | 1009.5 |
| 20260507080341 | 16 | 300 | 3.2 | 0.0 | 0.00 | 0.00 | 0.00 | 76 | 1008.6 |
| 20260507073721 | 16 | 300 | 3.2 | 0.0 | 0.00 | 0.00 | 0.00 | 76 | 1008.6 |